Time,TemperatureF,DewpointF,PressureIn,WindDirection,WindDirectionDegrees,WindSpeedMPH,WindSpeedGustMPH,Humidity,HourlyPrecipIn,Conditions,Clouds,dailyrainin,SoftwareType,DateUTC
2013-06-10 03:52:00,45.0,44.0,-100.00,East,95,3.0,6.0,97,-99.99,,,-99.99,,2013-06-10 09:52:00,
2013-06-10 04:22:00,44.0,43.0,-100.00,East,80,5.0,6.0,94,-99.99,,,-99.99,,2013-06-10 10:22:00,
2013-06-10 04:33:00,45.0,44.0,-100.00,East,95,3.0,6.0,97,-99.99,,,-99.99,,2013-06-10 10:33:00,
2013-06-10 04:42:00,45.0,44.0,-100.00,East,95,3.0,6.0,97,-99.99,,,-99.99,,2013-06-10 10:42:00,
2013-06-10 05:12:00,44.0,43.0,-100.00,East,80,5.0,6.0,94,-99.99,,,-99.99,,2013-06-10 11:12:00,
2013-06-10 05:22:00,45.0,41.0,-100.00,East,90,4.0,6.0,85,-99.99,,,-99.99,,2013-06-10 11:22:00,
2013-06-10 05:32:00,45.0,43.0,-100.00,East,100,4.0,6.0,91,-99.99,,,-99.99,,2013-06-10 11:32:00,
2013-06-10 05:42:00,45.0,43.0,-100.00,East,100,4.0,6.0,91,-99.99,,,-99.99,,2013-06-10 11:42:00,
2013-06-10 05:52:00,45.0,42.0,-100.00,East,80,4.0,6.0,87,-99.99,,,-99.99,,2013-06-10 11:52:00,
2013-06-10 06:02:00,45.0,42.0,-100.00,East,80,4.0,6.0,87,-99.99,,,-99.99,,2013-06-10 12:02:00,
2013-06-10 06:12:00,45.0,41.0,-100.00,East,90,4.0,6.0,85,-99.99,,,-99.99,,2013-06-10 12:12:00,
2013-06-10 06:32:00,46.0,41.0,-100.00,ESE,105,4.0,6.0,82,-99.99,,,-99.99,,2013-06-10 12:32:00,
2013-06-10 06:42:00,46.0,41.0,-100.00,ESE,105,4.0,6.0,82,-99.99,,,-99.99,,2013-06-10 12:42:00,
2013-06-10 07:12:00,50.0,42.0,-100.00,East,90,3.0,6.0,73,-99.99,,,-99.99,,2013-06-10 13:12:00,
2013-06-10 07:22:00,50.0,42.0,-100.00,East,90,3.0,6.0,73,-99.99,,,-99.99,,2013-06-10 13:22:00,
2013-06-10 07:32:00,51.0,42.0,-100.00,East,95,6.0,7.0,71,-99.99,,,-99.99,,2013-06-10 13:32:00,
2013-06-10 07:42:00,51.0,42.0,-100.00,East,95,6.0,7.0,71,-99.99,,,-99.99,,2013-06-10 13:42:00,
2013-06-10 07:52:00,54.0,43.0,-100.00,East,85,7.0,9.0,65,-99.99,,,-99.99,,2013-06-10 13:52:00,
2013-06-10 08:02:00,54.0,43.0,-100.00,East,85,7.0,9.0,65,-99.99,,,-99.99,,2013-06-10 14:02:00,
2013-06-10 08:12:00,56.0,41.0,-100.00,East,85,7.0,10.0,56,-99.99,,,-99.99,,2013-06-10 14:12:00,
2013-06-10 08:22:00,56.0,41.0,-100.00,East,85,7.0,10.0,56,-99.99,,,-99.99,,2013-06-10 14:22:00,
2013-06-10 08:32:00,56.0,40.0,-100.00,ENE,75,8.0,11.0,54,-99.99,,,-99.99,,2013-06-10 14:32:00,
2013-06-10 08:42:00,56.0,40.0,-100.00,ENE,75,8.0,11.0,54,-99.99,,,-99.99,,2013-06-10 14:42:00,
2013-06-10 08:52:00,59.0,39.0,-100.00,East,100,8.0,14.0,47,-99.99,,,-99.99,,2013-06-10 14:52:00,
2013-06-10 09:12:00,58.0,39.0,-100.00,East,80,9.0,11.0,49,-99.99,,,-99.99,,2013-06-10 15:12:00,
2013-06-10 09:22:00,60.0,41.0,-100.00,ENE,75,8.0,11.0,49,-99.99,,,-99.99,,2013-06-10 15:22:00,
2013-06-10 09:33:00,59.0,39.0,-100.00,East,100,8.0,14.0,47,-99.99,,,-99.99,,2013-06-10 15:33:00,
2013-06-10 09:43:00,59.0,39.0,-100.00,East,100,8.0,14.0,47,-99.99,,,-99.99,,2013-06-10 15:43:00,
2013-06-10 09:52:00,62.0,42.0,-100.00,ENE,70,8.0,11.0,48,-99.99,,,-99.99,,2013-06-10 15:52:00,
2013-06-10 10:12:00,60.0,41.0,-100.00,ENE,75,8.0,11.0,49,-99.99,,,-99.99,,2013-06-10 16:12:00,
2013-06-10 10:22:00,63.0,42.0,-100.00,ENE,65,4.0,9.0,46,-99.99,,,-99.99,,2013-06-10 16:22:00,
2013-06-10 10:33:00,62.0,42.0,-100.00,ENE,70,8.0,11.0,48,-99.99,,,-99.99,,2013-06-10 16:33:00,
2013-06-10 10:42:00,62.0,42.0,-100.00,ENE,70,8.0,11.0,48,-99.99,,,-99.99,,2013-06-10 16:42:00,
2013-06-10 10:52:00,65.0,44.0,-100.00,East,90,4.0,8.0,45,-99.99,,,-99.99,,2013-06-10 16:52:00,
2013-06-10 11:14:00,63.0,42.0,-100.00,ENE,65,4.0,9.0,46,-99.99,,,-99.99,,2013-06-10 17:14:00,
2013-06-10 11:22:00,68.0,44.0,-100.00,East,80,7.0,10.0,42,-99.99,,,-99.99,,2013-06-10 17:22:00,
2013-06-10 11:38:00,65.0,44.0,-100.00,East,90,4.0,8.0,45,-99.99,,,-99.99,,2013-06-10 17:38:00,
2013-06-10 11:48:00,65.0,44.0,-100.00,East,90,4.0,8.0,45,-99.99,,,-99.99,,2013-06-10 17:48:00,
2013-06-10 12:14:00,68.0,44.0,-100.00,East,80,7.0,10.0,42,-99.99,,,-99.99,,2013-06-10 18:14:00,
2013-06-10 12:22:00,68.0,43.0,-100.00,ENE,75,6.0,9.0,39,-99.99,,,-99.99,,2013-06-10 18:22:00,
2013-06-10 12:34:00,67.0,42.0,-100.00,East,80,4.0,11.0,41,-99.99,,,-99.99,,2013-06-10 18:34:00,
2013-06-10 12:48:00,67.0,42.0,-100.00,East,80,4.0,11.0,41,-99.99,,,-99.99,,2013-06-10 18:48:00,
2013-06-10 12:52:00,68.0,42.0,-100.00,East,90,4.0,12.0,39,-99.99,,,-99.99,,2013-06-10 18:52:00,
2013-06-10 12:55:00,68.0,42.0,-100.00,East,80,4.0,12.0,39,-99.99,,,-99.99,,2013-06-10 18:55:00,
2013-06-10 13:03:00,68.0,42.0,-100.00,East,80,4.0,12.0,39,-99.99,,,-99.99,,2013-06-10 19:03:00,
2013-06-10 13:12:00,68.0,43.0,-100.00,ENE,75,6.0,9.0,39,-99.99,,,-99.99,,2013-06-10 19:12:00,
2013-06-10 13:32:00,68.0,42.0,-100.00,East,90,4.0,12.0,39,-99.99,,,-99.99,,2013-06-10 19:32:00,
2013-06-10 13:42:00,68.0,42.0,-100.00,East,90,4.0,12.0,39,-99.99,,,-99.99,,2013-06-10 19:42:00,
2013-06-10 13:52:00,69.0,42.0,-100.00,NE,55,4.0,12.0,38,-99.99,,,-99.99,,2013-06-10 19:52:00,
2013-06-10 14:12:00,69.0,44.0,-100.00,ENE,65,7.0,12.0,40,-99.99,,,-99.99,,2013-06-10 20:12:00,
2013-06-10 14:22:00,69.0,43.0,-100.00,East,90,5.0,12.0,39,-99.99,,,-99.99,,2013-06-10 20:22:00,
2013-06-10 14:52:00,69.0,45.0,-100.00,ENE,60,8.0,12.0,41,-99.99,,,-99.99,,2013-06-10 20:52:00,
2013-06-10 15:12:00,69.0,43.0,-100.00,East,90,5.0,12.0,39,-99.99,,,-99.99,,2013-06-10 21:12:00,
2013-06-10 15:52:00,70.0,45.0,-100.00,East,95,6.0,12.0,41,-99.99,,,-99.99,,2013-06-10 21:52:00,
2013-06-10 16:13:00,70.0,45.0,-100.00,East,100,8.0,13.0,41,-99.99,,,-99.99,,2013-06-10 22:13:00,
2013-06-10 16:22:00,70.0,45.0,-100.00,East,100,8.0,13.0,41,-99.99,,,-99.99,,2013-06-10 22:22:00,
2013-06-10 16:33:00,70.0,45.0,-100.00,East,95,6.0,12.0,41,-99.99,,,-99.99,,2013-06-10 22:33:00,
2013-06-10 16:42:00,70.0,45.0,-100.00,East,95,6.0,12.0,41,-99.99,,,-99.99,,2013-06-10 22:42:00,
2013-06-10 16:52:00,70.0,45.0,-100.00,ESE,105,7.0,14.0,41,-99.99,,,0.00,,2013-06-10 22:52:00,
2013-06-10 17:12:00,70.0,46.0,-100.00,East,80,8.0,15.0,42,-99.99,,,0.00,,2013-06-10 23:12:00,
2013-06-10 17:22:00,70.0,47.0,-100.00,East,80,9.0,15.0,43,-99.99,,,0.00,,2013-06-10 23:22:00,
2013-06-10 17:32:00,70.0,45.0,-100.00,ESE,105,7.0,14.0,41,-99.99,,,0.00,,2013-06-10 23:32:00,
2013-06-10 17:42:00,70.0,45.0,-100.00,ESE,105,7.0,14.0,41,-99.99,,,0.00,,2013-06-10 23:42:00,
2013-06-10 18:12:00,70.0,47.0,-100.00,East,80,9.0,15.0,43,-99.99,,,0.00,,2013-06-11 00:12:00,